Tracking 20748 objects as of 4-Jun-2020
HD Live streaming from Space Station
objects crossing your sky now
Track the most recent launched group of Starlink satellites

ORBCOMM FM 4

Track ORBCOMM FM 4 now!
10-day predictions
ORBCOMM FM 4 is classified as:


NORAD ID: 25159
Int'l Code: 1998-007C
Perigee: 767.3 km
Apogee: 831.7 km
Inclination: 108.0 °
Period: 100.7 minutes
Semi major axis: 7170 km
RCS: 1.0023 m2 (large)
Launch date: February 10, 1998
Source: ORBCOMM (ORB)
Launch site: AIR FORCE WESTERN TEST RANGE (AFWTR)
aabbcc
Your satellite tracking list
Your tracking list is empty




NASA's NSSDC Master Catalog

Two Line Element Set (TLE):
1 25159U 98007C   20156.32145515 +.00000097 +00000-0 +88262-4 0  9992
2 25159 108.0023 337.8585 0044918 203.0426 156.8696 14.29805661161157
Source of the keplerian elements: AFSPC